This demonstration page uses our WeatherBlox Daily Observations layout. Learn more.

Left ArrowRight Arrow

Hourly Observations for May 14, 2020

Temp ( °F °C ) Dew Point ( °F °C ) Humidity (%) Winds ( mph kmh ) Pressure ( in mb ) Visibility ( mi km ) Precip ( " mm )
12:51 am 00:51 Clear 71 21.7 36 2.2 28 28 WNW 16 26 29.76 1008 10 16.0934 0 0
1:51 am 01:51 Clear 68 20 36 2.2 31 31 NW 9 15 29.77 1008 10 16.0934 0 0
2:51 am 02:51 Clear 67 19.4 35 1.7 31 31 NW 10 17 29.77 1008 10 16.0934 0 0
3:51 am 03:51 Clear 64 17.8 35 1.7 34 34 NW 3 6 29.78 1009 10 16.0934 0 0
4:51 am 04:51 Clear 63 17.2 35 1.7 35 35 WNW 5 7 29.8 1009 10 16.0934 0 0
5:51 am 05:51 Sunny 59 15 35 1.7 41 41 Calm 29.83 1010 10 16.0934 0 0
6:51 am 06:51 Sunny 66 18.9 36 2.2 33 33 SSE 5 7 29.84 1010 10 16.0934 0 0
7:51 am 07:51 Sunny 71 21.7 37 2.8 29 29 Calm 29.84 1011 10 16.0934 0 0
8:51 am 08:51 Sunny 73 22.8 38 3.3 28 28 S 3 6 29.84 1010 10 16.0934 0 0
9:51 am 09:51 Sunny 76 24.4 37 2.8 24 24 Calm 29.83 1010 10 16.0934 0 0
10:51 am 10:51 Sunny 80 26.7 35 1.7 20 20 Calm 29.83 1010 10 16.0934 0 0
11:51 am 11:51 Sunny 80 26.7 34 1.1 19 19 VRB 3 6 29.81 1009 10 16.0934 0 0
12:51 pm 12:51 Sunny 83 28.3 32 0 16 16 Calm 29.78 1009 10 16.0934 0 0
1:51 pm 13:51 Sunny 84 28.9 32 0 15 15 VRB 3 6 29.77 1008 10 16.0934 0 0
2:51 pm 14:51 Sunny 84 28.9 32 0 15 15 VRB 5 7 29.75 1007 10 16.0934 0 0
3:51 pm 15:51 Sunny 86 30 31 -0.6 14 14 WNW 9 15 29.72 1007 10 16.0934 0 0
4:51 pm 16:51 Sunny 87 30.6 29 -1.7 12 12 W 10 17 29.71 1006 10 16.0934 0 0
5:51 pm 17:51 Sunny 86 30 23 -5 10 10 NW 12 19 29.71 1006 10 16.0934 0 0
6:51 pm 18:51 Sunny 82 27.8 20 -6.7 10 10 NW 17 28 29.72 1006 10 16.0934 0 0
7:51 pm 19:51 Clear 78 25.6 23 -5 13 13 WNW 12 19 29.73 1007 10 16.0934 0 0
8:51 pm 20:51 Clear 76 24.4 25 -3.9 15 15 NW 15 24 29.74 1007 10 16.0934 0 0
9:51 pm 21:51 Clear 74 23.3 27 -2.8 17 17 NNW 10 17 29.76 1008 10 16.0934 0 0
10:51 pm 22:51 Clear 68 20 27 -2.8 21 21 W 7 11 29.77 1008 10 16.0934 0 0
11:51 pm 23:51 Clear 68 20 27 -2.8 21 21 WNW 10 17 29.78 1008 10 16.0934 0 0

Powered by AerisWeather